[[{"header":{"parameterUnit":"m.s-1","parameterCategory":1,"la1":30.2991,"la2":30.254,"lo1":-89.0895,"lo2":-89.0444,"dy":0.0017,"dx":0.0017,"nx":28,"ny":28,"refTime":"2024-06-08T03:00:00:Z","depth":0,"parameterNumber":2,"parameterNumberName":"U-component_of_WINDS"},"data":[0,0,0,0,0,0,0,0,0,0,0,0,0,0,0,0,0,0,0,0,0,0,0,0,0,0,0,0,0,0,0,0,0,0,0,0,0,0,0,0,0,0,0,0,0,0,0,0,0,0,0,0,0,0,0,0,0,0,0.0056,0.0057,0,0.0187,0.0188,0.019,0.0259,0.0259,0.0259,0.0259,0.0392,0.0395,0.0399,0,0,0,0,0,0,0,0,0,0,0,0,0,-0.0138,-0.0135,0.0056,0.0057,0.0059,0.0187,0.0188,0.019,0.0259,0.0259,0.0259,0.0259,0.0391,0.0395,0.0399,0,0,0,0,0,0,0,0,0,0,0,0,0,-0.0035,-0.0134,0.0055,0.0108,0.0115,0.0186,0.0188,0.0191,0.0259,0.0259,0.0259,0.0259,0.039,0.0395,0.04,0.0428,0,0,0.0415,0.0418,0,0,0,0,0,0,0,0,-0.0041,-0.0028,0.0099,0.0105,0.0112,0.0207,0.0169,0.027,0.0259,0.0204,0.0259,0.0259,0.033,0.034,0.0364,0.0434,0.044,0.0416,0.0419,0.0421,0.0423,0,0,0,0,0,0,0,-0.0048,-0.0034,0.0107,0.0101,0.0109,0.0125,0.014,0.0188,0.0264,0.0209,0.0214,0.0229,0.0334,0.0359,0.0368,0.0442,0.0416,0.042,0.0423,0.0425,0.054,0.054,0,0,0,0,0,0,-0.0064,-0.004,0.0103,0.0111,0.0034,0.0128,0.0145,0.0176,0.0264,0.0278,0.0228,0.0231,0.035,0.0362,0.0373,0.0411,0.0421,0.0426,0.0429,0.0541,0.054,0.054,0,0,0,0,0,0,-0.0068,-0.0052,0.0098,0.0037,0.0058,0.0131,0.0166,0.0178,0.0204,0.0279,0.0293,0.0241,0.0351,0.0366,0.0414,0.0417,0.0428,0.0433,0.0541,0.054,0.054,0.0489,0,0,0,0,0,0,-0.0074,-0.0054,-0.0042,0.0037,0.0061,0.0137,0.0166,0.0181,0.0213,0.0218,0.0294,0.0307,0.0352,0.0406,0.0419,0.0424,0.0437,0.0541,0.0541,0.054,0.049,0.0487,0.0484,0,0,0,0,0,-0.0081,-0.0061,-0.0041,-0.0024,0.0077,0.0137,0.0151,0.0203,0.0213,0.0225,0.0273,0.0304,0.0414,0.041,0.0425,0.0432,0.0541,0.0541,0.054,0.0492,0.0487,0.0484,0,0,0,0,0,0,-0.0142,-0.005,-0.0027,0.0019,0.007,0.0149,0.0166,0.0196,0.0245,0.0248,0.031,0.0326,0.0368,0.0405,0.0399,0.0464,0.0481,0.0484,0.0438,0.0435,0.0431,0.0422,0.0441,0,0,0,0,0,-0.015,-0.0108,-0.0031,0.0002,0.0027,0.0091,0.012,0.0155,0.021,0.0232,0.0283,0.0335,0.0381,0.041,0.0456,0.0496,0.0513,0.0508,0.0505,0.0502,0.0503,0.0526,0.0525,0.054,0.054,0.054,0,0,-0.0166,-0.0111,-0.0088,-0.0009,0.0035,0.0076,0.0109,0.0151,0.0182,0.0238,0.0287,0.0326,0.0387,0.0431,0.0452,0.0463,0.0503,0.0502,0.0499,0.0502,0.0526,0.0524,0.0523,0.054,0.054,0.054,0,0,-0.0175,-0.0128,-0.0096,-0.0053,0.0012,0.0055,0.0062,0.0137,0.0165,0.0215,0.0257,0.0294,0.0373,0.0414,0.0446,0.0451,0.0482,0.0465,0.0447,0.0469,0.0467,0.0467,0.0468,0.0468,0.0466,0.0466,0.0466,0,-0.0203,-0.0139,-0.0084,-0.0044,-0.0011,0.0042,0.0075,0.0113,0.019,0.0211,0.0222,0.0321,0.0366,0.0419,0.042,0.0444,0.0454,0.0457,0.0463,0.0463,0.0463,0.0465,0.0465,0.0464,0.0464,0.0464,0.0464,0,-0.0178,-0.0134,-0.0116,-0.0043,-0.0008,0.0028,0.0088,0.0117,0.0149,0.019,0.0239,0.0295,0.0354,0.0369,0.0401,0.0427,0.0431,0.0451,0.0469,0.0458,0.0461,0.0462,0.046,0.0461,0.0462,0.0462,0,0,-0.022,-0.0117,-0.0112,-0.0078,-0.0003,0.0032,0.0069,0.0126,0.0149,0.02,0.0233,0.0297,0.0316,0.0352,0.0389,0.0407,0.0407,0.0426,0.0428,0.042,0.0438,0.0421,0.0421,0.0427,0.0428,0.0428,0.0432,0,-0.0219,-0.0148,-0.0097,-0.0047,-0.0007,0.0044,0.0076,0.0125,0.0164,0.0204,0.0247,0.0291,0.0314,0.0335,0.0356,0.0402,0.0411,0.0403,0.0457,0.0458,0.044,0.0423,0.0407,0.0408,0.0434,0.0434,0.0434,0,-0.0207,-0.0157,-0.0103,-0.0032,-0.0014,0.0015,0.0071,0.0108,0.0164,0.0191,0.023,0.0268,0.0309,0.0323,0.0379,0.0372,0.0397,0.0423,0.0424,0.0431,0.0445,0.0429,0.041,0.0409,0.0437,0.0436,0.0436,0,-0.0244,-0.0164,-0.0121,-0.0094,-0.0011,0.0008,0.0043,0.01,0.0131,0.0179,0.02,0.0252,0.0281,0.032,0.037,0.0376,0.0421,0.044,0.0444,0.0443,0.0451,0.045,0.0435,0.0468,0.0468,0.0468,0.0468,0,-0.0248,-0.0217,-0.0137,-0.0111,-0.0075,-0.0017,0.0017,0.0056,0.0106,0.014,0.0186,0.0217,0.0282,0.032,0.036,0.0399,0.0412,0.0435,0.0445,0.043,0.0427,0.0448,0.0449,0.0468,0.0468,0.0468,0.0468,0,-0.0283,-0.0229,-0.0179,-0.0104,-0.0084,-0.0061,0.0002,0.0029,0.0071,0.0113,0.0126,0.0191,0.0238,0.0293,0.0358,0.0384,0.0421,0.0436,0.0402,0.0408,0.0409,0.0408,0.0406,0.0409,0.0439,0.0439,0.0439,0,-0.0289,-0.0264,-0.0187,-0.016,-0.0126,-0.0084,-0.0052,0.0005,0.0035,0.0101,0.0119,0.017,0.0214,0.0287,0.034,0.0389,0.0406,0.0402,0.0413,0.0398,0.0405,0.0402,0.0405,0.0398,0.0398,0.0397,0.0397,0,-0.0306,-0.028,-0.0236,-0.0182,-0.0146,-0.0101,-0.0054,-0.0036,0.003,0.0062,0.0111,0.0145,0.0212,0.0261,0.0317,0.0353,0.0385,0.0392,0.0396,0.0381,0.036,0.0371,0.0393,0.0392,0.0393,0.0393,0.0393,0.0393,-0.0327,-0.0302,-0.0244,-0.0197,-0.0156,-0.0114,-0.0085,-0.004,0.0002,0.0061,0.0092,0.014,0.0194,0.0273,0.0307,0.0345,0.0356,0.0361,0.0363,0.0363,0.0359,0.0354,0.0356,0.0356,0.0356,0.0356,0.0356,0,-0.0342,-0.0302,-0.0259,-0.0195,-0.0158,-0.013,-0.0078,-0.0049,-0.0007,0.0042,0.0084,0.0139,0.0187,0.0243,0.0294,0.0314,0.033,0.0325,0.0324,0.0332,0.0346,0.0338,0.0311,0.0311,0.0311,0.0311,0.0311,0.0311,-0.0345,-0.0302,-0.027,-0.0207,-0.0168,-0.012,-0.0092,-0.0054,-0.0015,0.0045,0.0086,0.0122,0.0173,0.0228,0.0273,0.0288,0.0304,0.0295,0.0314,0.0327,0.0331,0.0334,0.0327,0.0298,0.0298,0.0297,0.0297,0.0297]},{"header":{"parameterUnit":"m.s-1","parameterCategory":1,"la1":30.2991,"la2":30.254,"lo1":-89.0895,"lo2":-89.0444,"dy":0.0017,"dx":0.0017,"nx":28,"ny":28,"refTime":"2024-06-08T03:00:00:Z","depth":0,"parameterNumber":3,"parameterNumberName":"V-component_of_WINDS"},"data":[0,0,0,0,0,0,0,0,0,0,0,0,0,0,0,0,0,0,0,0,0,0,0,0,0,0,0,0,0,0,0,0,0,0,0,0,0,0,0,0,0,0,0,0,0,0,0,0,0,0,0,0,0,0,0,0,0,0,4.8997,4.8997,0,4.8983,4.8982,4.8982,4.8905,4.8904,4.8902,4.89,4.8887,4.8888,4.889,0,0,0,0,0,0,0,0,0,0,0,0,0,4.8959,4.896,4.8997,4.8997,4.8996,4.8983,4.8982,4.8982,4.8906,4.8904,4.8901,4.8899,4.8886,4.8888,4.889,0,0,0,0,0,0,0,0,0,0,0,0,0,4.8963,4.896,4.8997,4.8957,4.8953,4.8983,4.8982,4.8982,4.8906,4.8903,4.8901,4.8898,4.8886,4.8888,4.889,4.8958,0,0,4.8896,4.8897,0,0,0,0,0,0,0,0,4.8963,4.8964,4.8963,4.8959,4.8955,4.8943,4.8964,4.8974,4.8907,4.8924,4.89,4.8897,4.8908,4.8908,4.8911,4.8957,4.8956,4.8896,4.8898,4.8898,4.8899,0,0,0,0,0,0,0,4.8963,4.8965,4.8991,4.8963,4.8958,4.894,4.8937,4.8966,4.8932,4.8922,4.8917,4.8916,4.8905,4.891,4.891,4.8956,4.8896,4.8898,4.8899,4.89,4.9057,4.906,0,0,0,0,0,0,4.8968,4.8965,4.8991,4.8991,4.8952,4.8942,4.894,4.895,4.8931,4.8925,4.8918,4.8912,4.8907,4.8908,4.891,4.8988,4.8898,4.89,4.8901,4.9054,4.9058,4.9061,0,0,0,0,0,0,4.8967,4.8971,4.8992,4.8976,4.8977,4.8946,4.8958,4.8951,4.8955,4.8928,4.8922,4.8929,4.8905,4.8907,4.8946,4.8986,4.8901,4.8903,4.9051,4.9055,4.9059,4.9145,0,0,0,0,0,0,4.8967,4.8971,4.8996,4.8977,4.8979,4.9029,4.896,4.8953,4.8959,4.8951,4.8936,4.8931,4.8903,4.8944,4.8948,4.8988,4.8905,4.9047,4.9053,4.9058,4.9139,4.9152,4.9164,0,0,0,0,0,4.8965,4.9021,4.8998,4.9002,4.9009,4.9031,4.9032,4.8998,4.8962,4.8987,4.897,4.8932,4.8981,4.8948,4.8953,4.8994,4.9044,4.9051,4.9058,4.9133,4.915,4.9163,0,0,0,0,0,0,4.9046,4.9018,4.8992,4.9043,4.904,4.9018,4.9049,4.9017,4.9024,4.9017,4.8975,4.8972,4.9018,4.9009,4.8973,4.9058,4.9006,4.9014,4.9062,4.9078,4.909,4.9091,4.8906,0,0,0,0,0,4.907,4.909,4.9064,4.9112,4.9112,4.9081,4.9089,4.9063,4.9059,4.9057,4.9043,4.904,4.9055,4.9066,4.9078,4.9137,4.9133,4.9167,4.918,4.919,4.9198,4.9229,4.9244,4.9083,4.9083,4.9083,0,0,4.912,4.9107,4.9122,4.9128,4.9123,4.9144,4.908,4.9106,4.9122,4.9061,4.9098,4.9087,4.9081,4.9131,4.9152,4.9125,4.9241,4.9199,4.9207,4.9209,4.9237,4.9253,4.9266,4.9087,4.9086,4.9086,0,0,4.9221,4.9213,4.9252,4.9248,4.924,4.9219,4.9229,4.9212,4.9202,4.9238,4.9193,4.9211,4.9238,4.9236,4.9238,4.9339,4.9304,4.9344,4.9409,4.944,4.9453,4.9464,4.95,4.9514,4.9351,4.9352,4.9352,0,4.9284,4.9314,4.9276,4.9305,4.9309,4.9255,4.9294,4.9292,4.9289,4.9294,4.9264,4.9296,4.9288,4.9337,4.9362,4.9365,4.9375,4.9346,4.9454,4.9464,4.9474,4.9508,4.9522,4.9356,4.9356,4.9355,4.9355,0,4.9392,4.9414,4.9446,4.9445,4.9452,4.9487,4.9454,4.9467,4.9441,4.9423,4.946,4.9449,4.9458,4.9468,4.9442,4.9513,4.9497,4.9461,4.9408,4.9495,4.9527,4.9539,4.9364,4.9362,4.936,4.9359,0,0,4.9544,4.9521,4.9534,4.9532,4.952,4.9536,4.9568,4.9576,4.9588,4.9588,4.9614,4.9638,4.9604,4.9607,4.9581,4.9608,4.9689,4.9569,4.9568,4.9592,4.9767,4.9795,4.9811,4.9666,4.9668,4.967,4.9768,0,4.9642,4.9694,4.9661,4.9719,4.9739,4.9687,4.9715,4.9711,4.9695,4.971,4.9693,4.9711,4.9665,4.9667,4.9691,4.9674,4.9724,4.9667,4.969,4.9692,4.9694,4.9827,4.9856,4.9949,4.978,4.9782,4.9784,0,4.9763,4.9767,4.9827,4.9811,4.9818,4.9844,4.9849,4.9864,4.9858,4.9845,4.9848,4.9815,4.9845,4.9793,4.9835,4.9796,4.9804,4.9797,4.98,4.9801,4.9743,4.9833,4.9978,4.9992,4.9802,4.9801,4.98,0,4.9869,4.989,4.9928,4.9929,4.9911,4.993,4.9923,4.9914,4.9922,4.9926,4.9931,4.9939,4.9944,4.9952,4.9922,4.9886,4.9968,4.9913,4.9959,4.996,4.9978,4.9978,5.0128,4.9983,4.9983,4.9982,4.9982,0,4.9981,5.002,4.9976,5.0,5.0042,5.0003,5.0046,5.0034,5.0027,5.0048,5.0004,5.0024,4.9984,5.0001,4.9978,5.0016,5.0018,5.0009,5.0003,5.0013,5.0015,5.0018,5.0011,4.9986,4.9985,4.9985,4.9984,0,5.0107,5.0079,5.0118,5.0097,5.0093,5.0125,5.0107,5.0129,5.011,5.0137,5.0141,5.0112,5.013,5.0101,5.0115,5.0099,5.0153,5.0136,5.0155,5.015,5.0198,5.0194,5.0356,5.0375,5.0218,5.0219,5.022,0,5.0181,5.021,5.0192,5.0203,5.0199,5.0216,5.0223,5.0186,5.0196,5.0191,5.0214,5.0227,5.0236,5.0267,5.0247,5.0258,5.0241,5.0297,5.0243,5.0253,5.0243,5.0242,5.0245,5.0309,5.0311,5.0312,5.0313,0,5.0316,5.0301,5.0312,5.0319,5.0329,5.0333,5.0333,5.0345,5.0306,5.0318,5.0335,5.0342,5.0356,5.0371,5.0377,5.037,5.0336,5.0331,5.0342,5.0353,5.0363,5.0359,5.0186,5.0327,5.0326,5.0325,5.0324,5.0323,5.0419,5.0442,5.0433,5.0447,5.0444,5.0445,5.0465,5.0448,5.0461,5.047,5.0447,5.047,5.0463,5.0467,5.0465,5.0482,5.0457,5.0474,5.0478,5.0483,5.049,5.036,5.0483,5.0483,5.0482,5.0482,5.0481,0,5.0552,5.0543,5.0557,5.0559,5.0571,5.0536,5.0535,5.0547,5.0567,5.0564,5.0573,5.0593,5.0607,5.0588,5.0599,5.0616,5.0601,5.0621,5.0619,5.0618,5.0511,5.0501,5.0633,5.0633,5.0633,5.0633,5.0633,5.0633,5.0622,5.066,5.0643,5.0678,5.067,5.0691,5.0693,5.0695,5.0692,5.0716,5.0726,5.0714,5.0705,5.0714,5.0725,5.0719,5.0726,5.0751,5.074,5.0641,5.0626,5.0612,5.0602,5.0753,5.0753,5.0845,5.0846,5.0847]}]]